STARLINK-36684, 68718

Orbit data source: Space-Track

STARLINK-36684, 68718 is a payload satellite owned by SpaceX/Seattle (US) in LEO that was launched on Tue, 14 Apr 2026 UTC via an FALCON 9 launch vehicle from the Air Force Eastern Test Range (AFETR). Payload-class satellites include a variety of spacecraft equipped with specific instruments for various scientific and technological missions. These include communications satellites like Starlink; space stations such as the ISS; scientific satellites like the Hubble; Earth observation satellites from companies like Planet Labs, Umbra, and HawkEye 360; GPS; miniature CubeSats for education and research; and military/defense satellites.

Loading next visibility...
Identifier
68718, 2026-081V
Orbit
LEO
Country
Flag of USUS
Related business
Manufacturer
SpaceX/Seattle
Mission
Operational spacecraft
Bus & Motor
STARLINK V2MO, Unknown motor
Mass
575 kg wet, ~530 kg dry
Launch date (UTC)
2026-04-14 (2 months ago)
Launch vehicle
FALCON 9
Launch site
Air Force Eastern Test Range (AFETR)
Object type
Payload
Rocket body
Debris
Shape & HBR
Unknown shape, 14.5 m
Radar Cross Section
Large (>1 m²)

Expand to show TLE details & history
Last TLE update: 1 day ago

TLE from 1 day ago
0 STARLINK-36684
1 68718U 26081V   26170.57587680  .00027512  00000-0  82223-3 0  9996
2 68718  53.1604 280.0160 0001161  86.4145 273.6991 15.34407211 10359
Epoch: 2026-06-19T13:49Z
TLE epoch observation values (Epoch: 2026-06-19T13:49:15.755Z)
Latitude
0.00003°
Longitude
164.8975°
Altitude
463.532 km
Speed
7.636 km/s
True Right ascension
18h 40m 03s
True Declination
0° 00' 00"
Sunlit
Object was in full shadow at epoch
Visualization orbit readout
Latitude
Unknown
Longitude
Unknown
Altitude
Unknown
Speed
Unknown
Apparent Right ascension
Unknown
Apparent Declination
Unknown
Sunlit
N/A
Visualization observer readout
Local Sidereal Time
07:17:54
Azimuth
Unknown
Elevation
Unknown
Doppler factor
Unknown
Orbital elements
Apogee altitude
463.733 km
Perigee altitude
462.144 km
Semi-major axis
6,841.076 km
Eccentricity
0.00012
Inclination
53.1604°
RAAN
280.016°
Arg. of periapsis
86.4145°
True anomaly
273.68582°
Mean anomaly
273.6991°
Eccentric anomaly
273.69246°
Mean motion
3.83581 °/min
Orbital period
93.85 mins
BSTAR
0.00082223
Loading maneuver chart data...
Computing Atmospheric mass density...
Loading historical data...
Loading historical data...
Loading historical data...
Loading historical data...
Loading historical data...
Loading historical data...
Loading historical data...

Documentation

Showing up to 5 results
|